Location: Hemaruka
(51.7801°N, 111.0917°W)
Time: 07:13:27
(UTC+00:00)

NOAA 15 - Pass Details

Date: 10 December 2023
Orbit: 797 x 810 km, 98.6° (Epoch: 04 March)

Event Time Altitude Azimuth Distance (km) Brightness Sun altitude
Rises 02:10:12 0° 168° (SSE) 3,315 7.7 -25.9°
Reaches altitude 10° 02:12:32 10° 170° (S) 2,386 7.0 -26.3°
Maximum altitude 02:17:49 75° 256° (WSW) 839 4.7 -27.1°
Drops below altitude 10° 02:23:07 10° 342° (NNW) 2,395 7.2 -27.9°
Sets 02:25:28 0° 344° (NNW) 3,328 8.0 -28.3°
